Flag for USA

Past Weather in 41°17'38"N, 81°25'54"W, USA — Yesterday and Last 2 Weeks

Now
74 °F

Clear.


Feels Like: 75 °F
Forecast: 89 / 71 °F
Wind: No wind

Location: Akron Fulton International Airport

Current Time: Jul 4, 2020 at 2:50:21 am

Latest Report: Jul 4, 2020 at 1:54 am


Visibility: 8 mi

Pressure: 29.97 "Hg

Humidity: 76%

Dew Point: 66 °F

Location of 41°17'38"N, 81°25'54"WLocation

Past Weather in 41°17'38"N, 81°25'54"W — Graph

°F

41°17'38"N, 81°25'54"W Temperature Yesterday

Maximum temperature yesterday: 93 °F (at 1:54 pm)
Minimum temperature yesterday: 66 °F (at 3:54 am)
Average temperature yesterday: 80 °F

High & Low Weather Summary for the Past Weeks

 TemperatureHumidityPressure
High93 °F (Jul 3, 1:54 pm)91% (Jun 20, 6:54 am)30.08 "Hg (Jun 20, 6:54 am)
Low58 °F (Jun 25, 4:54 am)33% (Jun 29, 3:54 pm)29.62 "Hg (Jun 23, 4:54 pm)
Average75 °F66%29.91 "Hg
* Reported Jun 19 12:54 am — Jul 4 12:54 am, 41°17'38"N, 81°25'54"W. Weather by CustomWeather, © 2020

Note: Actual official high and low records may vary slightly from our data, if they occured in-between our weather recording intervals... More about our weather records

41°17'38"N, 81°25'54"W Weather History for the Previous 24 Hours

Scroll right to see more
 ConditionsComfort  
Time TempWeatherWind HumidityBarometerVisibility
12:54 am
Sat, Jul 4
76 °FClear.No wind72%29.97 "Hg7 mi
12:35 am77 °FClear.No wind69%30.00 "Hg8 mi
12:20 am77 °FClear.No wind71%30.00 "Hg2 mi
11:54 pm
Fri, Jul 3
76 °FMild.No wind72%29.96 "Hg7 mi
10:54 pm78 °FWarm.N/A66%29.96 "HgN/A
6:54 pm89 °FSunny.10 mph46%29.93 "Hg10 mi
5:54 pm91 °FSunny.8 mph42%29.93 "Hg10 mi
4:54 pm92 °FPassing clouds.10 mph40%29.95 "Hg10 mi
3:54 pm93 °FScattered clouds.12 mph36%29.95 "Hg10 mi
2:54 pm92 °FSunny.12 mph35%29.97 "Hg10 mi
1:54 pm93 °FSunny.10 mph33%29.98 "Hg10 mi
12:54 pm91 °FSunny.8 mph37%29.99 "Hg10 mi
11:54 am90 °FSunny.9 mph38%30.00 "Hg10 mi
10:54 am88 °FSunny.10 mph35%29.99 "Hg10 mi
9:54 am86 °FSunny.7 mph37%30.00 "Hg10 mi
8:54 am81 °FSunny.No wind49%29.99 "Hg10 mi
7:54 am75 °FSunny.No wind62%30.00 "Hg10 mi
6:54 am68 °FSunny.No wind78%30.00 "Hg10 mi
5:54 am66 °FClear.No wind81%29.99 "Hg10 mi
4:54 am66 °FClear.No wind78%29.98 "Hg10 mi
3:54 am66 °FClear.No wind81%29.98 "Hg10 mi
2:54 am68 °FClear.No wind76%29.99 "Hg10 mi
Weather by CustomWeather, © 2020

See weather overview